Back to catalog

STARLINK-30383

AliveCommunicationsVLEO
NORAD 57773·PAYLOAD·🇺🇸 United States

Launched Sep 4, 2023 from Cape Canaveral Space Force Station

Loading…

Next Passes (next 24 hours)

TLE

FreshSource: CelesTrak SupGP

Epoch: Sep 15, 2026, 02:50 UTC

1 57773C 23134C   26258.11854167  .00002273  00000+0  82356-4 0  2587
2 57773  43.0011 207.7823 0001485 266.9191   9.5704 15.27572383    10

Track STARLINK-30383 in real time with AllMySat

Download on the App Store